Regional Weather Roundup
Issued by NWS

Home | Current Version | Previous Version | Graphics & Text | Print | Product List | Glossary On
Versions: 1 2 3 4 5 6 7 8 9 10 11 12 13 14 15 16 17 18 19 20 21 22 23 24 25 26 27
000
ASUS45 KBOI 252110
RWRID

IDAHO REGIONAL WEATHER ROUNDUP
NATIONAL WEATHER SERVICE BOISE ID
300 PM MDT MON JUL 25 2016

NOTE: "FAIR" INDICATES FEW OR NO CLOUDS BELOW 12000 FEET
WITH NO SIGNIFICANT WEATHER AND/OR OBSTRUCTIONS TO VISIBILITY

IDZ012-014-252200-
SOUTHWEST IDAHO


CITY           SKY/WX    TMP DP  RH WIND       PRES   REMARKS
BOISE          SUNNY     94  41  16 NW8       29.98F HX  90
CALDWELL       NOT AVBL
MOUNTAIN HOME  SUNNY     96  30   9 VRB5      29.98F HX  90
$$

IDZ016-017-252200-
SOUTHCENTRAL IDAHO


CITY           SKY/WX    TMP DP  RH WIND       PRES   REMARKS
BURLEY         SUNNY     91  38  15 NE5       30.06F
JEROME         SUNNY     91  40  16 W6        30.07F
TWIN FALLS     SUNNY     92  33  12 VRB6      30.08F
$$

IDZ019>023-252200-
SOUTHEAST IDAHO


CITY           SKY/WX    TMP DP  RH WIND       PRES   REMARKS
IDAHO FALLS    SUNNY     92  29  10 S8        30.10F
POCATELLO      SUNNY     93  28  10 NW9       30.09F
REXBURG        NOT AVBL
$$

IDZ006-010-011-018-031-032-252200-
CENTRAL IDAHO MOUNTAINS


CITY           SKY/WX    TMP DP  RH WIND       PRES   REMARKS
MCCALL         SUNNY     85  36  17 N6        30.15F
HAILEY         MOSUNNY   90  36  14 NW6       30.14F
STANLEY        NOT AVBL
SALMON         SUNNY     90  45  20 N8        30.01S
CHALLIS        SUNNY     89  31  12 SE7       30.10F
$$

IDZ002-004-006-007-026-252200-
NORTHERN IDAHO


CITY           SKY/WX    TMP DP  RH WIND       PRES   REMARKS
LEWISTON       SUNNY     93  50  23 E6        29.96F HX  90
LOWELL           N/A     97  51  21 VRB3      29.95F HX  94
COEUR D`ALENE  SUNNY     90  52  27 CALM      29.99F
MULLAN PASS    SUNNY     73  41  31 W6        30.24S
$$




USA.gov is the U.S. government's official web portal to all federal, state and local government web resources and services.